User: anonymous   Login
Location: Arapaho Elementary School
(32.9607°N, 96.7625°W)
Time: 23:16:28
(UTC+00:00)
Language:

Cosmos 1500 Rocket - Orbit

View from above orbital plane
View from above orbital plane
View from above satellite
View from above satellite

Ground track
Ground track

The orbit data is extracted from the following two-line orbital elements,

1 14373U 83099B   22140.36074566  .00000529  00000-0  60448-4 0  9995
2 14373  82.5408   3.7788 0021419  54.4715 305.8493 14.83956269 66437
Epoch (UTC): 20 May 2022 08:39:28
Eccentricity: 0.0021419
inclination: 82.5408°
perigee height: 602 km
apogee height: 632 km
right ascension of ascending node: 3.7788°
argument of perigee: 54.4715°
revolutions per day: 14.83956269
mean anomaly at epoch: 305.8493°
orbit number at epoch: 6643

The dashed part of the orbit path shows where the satellite is in the earth's shadow,  

DLR